Stations météo

réclame
Mon MeteoGroup
Solenzara, France (7765): Température de l'air & dewpoint: 11.01.2018 01:00:00 - 17.01.2018 01:00:00 (CET)Solenzara, France (7765): Température de l'air 5cm: 11.01.2018 01:00:00 - 17.01.2018 01:00:00 (CET)Solenzara, France (7765): Température de l'air -20cm: 11.01.2018 01:00:00 - 17.01.2018 01:00:00 (CET)Solenzara, France (7765): Vitesse du vent & gusts: 11.01.2018 01:00:00 - 17.01.2018 01:00:00 (CET)Solenzara, France (7765): Direction du vent: 11.01.2018 01:00:00 - 17.01.2018 01:00:00 (CET)Solenzara, France (7765): reduced air pressure: 11.01.2018 01:00:00 - 17.01.2018 01:00:00 (CET)Solenzara, France (7765): visibility: 11.01.2018 01:00:00 - 17.01.2018 01:00:00 (CET)Solenzara, France (7765): Ensoleillement: 11.01.2018 01:00:00 - 17.01.2018 01:00:00 (CET)Solenzara, France (7765): Quantités de précipitations: 11.01.2018 01:00:00 - 17.01.2018 01:00:00 (CET)
Date & Time tt [°C] td [°C] tt 5cm [°C] tt -20cm [°C] ff [km/h] ff [knt] fx [km/h] fx [knt] dd ppp [hPa] vv [km] sd [min] rr [mm]
17.01.2018 01:00:00 18,6 4,0 16,8 11,8 13 7 55 30 - 1006,8 10 0 0,0
17.01.2018 00:00:00 18,4 4,5 16,3 11,8 18 10 61 33 - 1008,2 10 0 0,0
16.01.2018 23:00:00 17,9 5,1 15,9 11,8 22 12 64 35 - 1008,4 10 0 0,0
16.01.2018 22:00:00 17,7 5,3 16,1 11,7 18 10 74 40 - 1009,0 10 0 0,0
16.01.2018 21:00:00 17,7 5,0 15,1 11,7 15 8 69 38 - 1009,6 10 0 0,0
16.01.2018 20:00:00 17,1 5,1 15,2 11,7 15 8 64 35 - 1009,4 10 0 0,0
16.01.2018 19:00:00 17,4 5,0 15,3 11,6 18 10 64 35 - 1009,9 10 0 0,0
16.01.2018 18:00:00 17,3 4,9 15,5 11,5 22 12 45 25 - 1010,2 10 0 0,0
16.01.2018 17:00:00 16,9 5,2 15,9 11,4 23 12 56 30 WSW 1010,3 60 18 0,0
16.01.2018 16:00:00 17,3 5,2 16,3 11,3 13 7 61 33 WSW 1010,8 59 12 0,0
16.01.2018 15:00:00 17,0 5,0 16,3 11,2 18 10 67 36 - 1011,1 10 6 0,0
16.01.2018 14:00:00 16,9 5,2 16,2 11,0 10 5 66 36 SW 1011,8 60 2 0,0
16.01.2018 13:00:00 17,5 4,8 17,5 10,9 13 7 44 24 - 1012,2 10 22 0,0
16.01.2018 12:00:00 17,3 4,9 16,1 10,8 24 13 49 26 SW 1012,9 10 13 0,0
16.01.2018 11:00:00 16,4 5,4 16,8 10,7 9 5 47 25 - 1014,1 10 43 0,0
16.01.2018 10:00:00 16,3 5,0 14,2 10,7 9 5 40 22 - 1014,1 10 17 0,0
16.01.2018 09:00:00 15,0 4,4 12,4 10,7 15 8 68 37 WSW 1014,0 10 31 0,0
16.01.2018 08:00:00 13,8 4,1 10,4 10,7 5 3 51 28 N 1014,0 10 1 0,0
16.01.2018 07:00:00 13,2 3,0 9,5 10,8 9 5 52 28 NW 1014,6 10 0 0,0
16.01.2018 06:00:00 12,3 3,0 9,3 10,8 9 5 25 14 W 1015,8 10 0 0,0
16.01.2018 05:00:00 11,5 3,3 8,9 10,9 10 6 31 17 SSW 1016,1 60 0 0,0
16.01.2018 04:00:00 13,7 0,3 10,5 10,9 33 18 66 35 NW 1015,8 60 0 0,0
16.01.2018 03:00:00 11,8 3,0 7,6 11,0 11 6 37 20 WNW 1017,5 10 0 0,0
16.01.2018 02:00:00 9,4 5,6 7,4 11,1 8 4 14 8 - 1018,2 10 0 0,0
16.01.2018 01:00:00 8,7 5,8 6,0 11,2 9 5 17 9 SSE 1019,2 10 0 0,0
16.01.2018 00:00:00 7,4 5,7 5,4 11,3 11 6 18 10 N 1019,5 10 0 0,0
15.01.2018 23:00:00 8,1 5,6 3,8 11,3 2 1 14 8 - 1019,8 10 0 0,0
15.01.2018 22:00:00 7,7 4,8 4,5 11,4 12 7 18 10 N 1019,8 51 0 0,0
15.01.2018 21:00:00 8,1 5,4 4,8 11,5 5 3 14 8 WNW 1020,2 10 0 0,0
15.01.2018 20:00:00 8,7 4,1 6,3 11,5 7 4 18 10 W 1020,1 59 0 0,0
15.01.2018 19:00:00 8,3 4,5 6,7 11,5 9 5 14 8 W 1020,6 53 0 0,0
15.01.2018 18:00:00 9,4 5,8 7,8 11,4 5 3 14 8 - 1020,9 10 0 0,0
15.01.2018 17:00:00 11,1 7,6 9,9 11,3 9 5 19 10 NNW 1020,8 10 6 0,0
15.01.2018 16:00:00 13,7 8,5 13,2 11,1 5 3 16 9 - 1020,4 10 13 0,0
15.01.2018 15:00:00 13,1 8,4 14,3 11,0 11 6 21 11 SSE 1020,7 10 34 0,0
15.01.2018 14:00:00 13,1 6,7 13,6 10,8 11 6 22 12 SSE 1021,1 10 52 0,0
15.01.2018 13:00:00 13,1 6,2 14,6 10,6 8 4 13 7 ESE 1021,8 10 43 0,0
15.01.2018 12:00:00 13,9 6,0 15,8 10,5 8 4 11 6 ENE 1022,8 10 60 0,0
15.01.2018 11:00:00 13,7 5,8 12,8 10,5 5 3 9 5 - 1023,3 10 60 0,0
15.01.2018 10:00:00 11,6 4,3 9,2 10,5 5 3 18 10 - 1022,9 10 25 0,0
15.01.2018 09:00:00 9,1 4,5 7,8 10,6 8 4 18 10 W 1022,6 10 0 0,0
15.01.2018 08:00:00 8,6 4,4 7,6 10,6 9 5 16 9 W 1022,2 10 0 0,0
15.01.2018 07:00:00 8,6 4,0 7,7 10,7 8 4 16 8 W 1021,7 10 0 0,0
15.01.2018 06:00:00 8,7 4,1 7,9 10,7 8 5 14 8 W 1021,4 60 0 0,0
15.01.2018 05:00:00 8,6 4,0 6,8 10,8 8 4 17 9 W 1021,4 10 0 0,0
15.01.2018 04:00:00 8,2 4,6 6,6 10,8 7 4 16 9 NW 1021,7 43 0 0,0
15.01.2018 03:00:00 8,3 3,7 6,8 10,9 9 5 19 10 W 1022,0 10 0 0,0
15.01.2018 02:00:00 7,9 3,5 6,7 10,9 9 5 17 9 W 1021,9 10 0 0,0
15.01.2018 01:00:00 8,3 3,9 6,8 11,0 9 5 16 9 W 1022,0 10 0 0,0
15.01.2018 00:00:00 7,8 3,8 6,5 11,0 9 5 16 9 W 1022,1 48 0 0,0
14.01.2018 23:00:00 8,0 4,0 6,5 11,1 8 4 13 7 W 1022,0 10 0 0,0
14.01.2018 22:00:00 8,5 4,1 7,3 11,0 5 3 19 11 - 1021,7 10 0 0,0
14.01.2018 21:00:00 8,6 4,8 7,6 11,1 9 5 16 8 W 1021,3 43 0 0,0
14.01.2018 20:00:00 9,1 5,3 8,0 11,1 5 3 12 7 W 1020,9 10 0 0,0
14.01.2018 19:00:00 9,7 5,3 8,9 11,1 5 3 11 6 W 1020,5 40 0 0,0
14.01.2018 18:00:00 9,9 5,5 9,2 11,0 6 3 10 6 W 1020,2 25 0 0,0
14.01.2018 17:00:00 10,5 5,5 9,0 10,9 5 3 8 4 W 1019,8 10 0 0,0
14.01.2018 16:00:00 11,7 5,1 11,3 10,8 4 2 12 6 S 1019,4 59 31 0,0
14.01.2018 15:00:00 11,8 4,7 12,3 10,6 8 4 14 8 SSE 1019,4 10 20 0,0
14.01.2018 14:00:00 11,9 4,1 13,4 10,5 9 5 21 11 SSE 1019,4 10 47 0,0
14.01.2018 13:00:00 12,4 3,1 15,0 10,3 8 4 14 7 E 1019,5 10 60 0,0
14.01.2018 12:00:00 12,8 2,0 14,8 10,2 8 4 12 7 E 1020,1 10 60 0,0
14.01.2018 11:00:00 12,7 2,2 14,5 10,1 4 2 11 6 NNE 1020,6 49 60 0,0
14.01.2018 10:00:00 10,1 2,7 6,8 10,2 5 3 21 11 W 1020,4 10 58 0,0
14.01.2018 09:00:00 7,1 2,4 6,5 10,3 11 6 19 11 W 1020,0 51 0 0,0
14.01.2018 08:00:00 7,1 2,2 5,8 10,3 10 5 19 11 W 1019,8 60 0 0,0
14.01.2018 07:00:00 6,9 2,2 5,6 10,4 9 5 19 10 W 1019,5 10 0 0,0
14.01.2018 06:00:00 6,6 2,3 5,4 10,5 13 7 19 10 W 1019,4 10 0 0,0
14.01.2018 05:00:00 6,8 2,3 5,5 10,5 11 6 20 11 W 1019,2 10 0 0,0
14.01.2018 04:00:00 6,8 1,9 5,3 10,6 12 7 19 10 W 1019,6 60 0 0,0
14.01.2018 03:00:00 6,9 1,4 5,5 10,7 13 7 22 12 W 1019,7 60 0 0,0
14.01.2018 02:00:00 7,3 1,8 5,9 10,8 11 6 19 10 W 1019,8 10 0 0,0
14.01.2018 01:00:00 7,3 2,0 5,7 10,9 13 7 22 12 W 1019,9 60 0 0,0
14.01.2018 00:00:00 7,1 2,4 5,5 10,9 11 6 22 12 W 1020,6 10 0 0,0
13.01.2018 23:00:00 7,1 2,4 5,6 11,0 11 6 21 11 W 1020,7 10 0 0,0
13.01.2018 22:00:00 7,2 2,9 5,7 11,1 13 7 22 12 W 1020,6 10 0 0,0
13.01.2018 21:00:00 7,3 3,2 6,0 11,1 11 6 19 10 W 1020,5 10 0 0,0
13.01.2018 20:00:00 7,9 3,2 6,2 11,1 11 6 18 10 W 1020,7 10 0 0,0
13.01.2018 19:00:00 8,7 2,9 6,6 11,1 9 5 14 8 W 1020,5 10 0 0,0
13.01.2018 18:00:00 10,5 2,6 9,0 11,1 8 4 17 9 NNW 1020,4 10 0 0,0
13.01.2018 17:00:00 11,1 3,1 10,4 11,0 11 6 21 11 N 1020,2 59 0 0,0
13.01.2018 16:00:00 11,6 2,9 11,5 10,9 15 8 36 19 N 1020,1 59 0 0,0
13.01.2018 15:00:00 11,9 3,1 11,7 10,8 26 14 42 23 NNE 1019,7 10 26 0,0
13.01.2018 14:00:00 12,9 3,5 13,5 10,7 26 14 40 22 NE 1019,6 10 60 0,0
13.01.2018 13:00:00 13,4 3,7 14,5 10,5 21 11 30 16 NE 1020,0 37 60 0,0
13.01.2018 12:00:00 13,2 3,8 13,6 10,5 16 9 22 12 NE 1020,6 10 60 0,0
13.01.2018 11:00:00 12,5 3,4 13,1 10,4 16 9 23 13 NNE 1021,0 10 60 0,0
13.01.2018 10:00:00 11,9 2,9 8,0 10,5 13 7 19 10 N 1021,1 51 30 0,0
13.01.2018 09:00:00 8,7 3,3 5,5 10,6 7 4 17 9 NW 1021,0 60 13 0,0
13.01.2018 08:00:00 6,5 2,6 3,1 10,7 8 4 14 8 WNW 1020,8 10 0 0,0
13.01.2018 07:00:00 5,8 2,6 3,3 10,8 6 3 11 6 NW 1020,5 51 0 0,0
13.01.2018 06:00:00 6,4 2,8 4,5 10,9 11 6 17 9 W 1020,2 10 0 0,0
13.01.2018 05:00:00 6,1 2,7 4,5 11,0 11 6 17 9 W 1020,1 10 0 0,0
13.01.2018 04:00:00 6,3 2,9 4,7 11,0 13 7 19 11 W 1020,1 10 0 0,0
13.01.2018 03:00:00 6,3 3,1 4,7 11,1 9 5 15 8 W 1020,3 10 0 0,0
13.01.2018 02:00:00 6,5 3,5 5,1 11,2 11 6 18 10 W 1020,1 10 0 0,0
13.01.2018 01:00:00 6,9 3,7 5,5 11,3 10 5 18 10 W 1020,1 60 0 0,0
13.01.2018 00:00:00 7,2 4,0 5,7 11,4 11 6 18 10 W 1020,1 10 0 0,0
12.01.2018 23:00:00 7,2 4,2 5,3 11,5 12 6 16 9 W 1020,0 49 0 0,0
12.01.2018 22:00:00 8,1 4,7 6,2 11,5 8 4 14 8 W 1019,6 10 0 0,0
12.01.2018 21:00:00 8,4 5,1 6,6 11,5 9 5 12 7 W 1019,2 10 0 0,0
12.01.2018 20:00:00 8,9 5,1 7,4 11,5 5 3 11 6 WNW 1018,7 10 0 0,0
12.01.2018 19:00:00 10,2 5,0 8,9 11,5 8 4 16 9 NW 1018,2 10 0 0,0
12.01.2018 18:00:00 10,8 4,9 9,9 11,5 8 4 16 8 NNW 1017,8 10 0 0,0
12.01.2018 17:00:00 11,3 5,2 10,5 11,5 8 4 17 9 NNW 1017,3 10 0 0,0
12.01.2018 16:00:00 11,7 5,8 11,3 11,5 11 6 18 10 N 1016,7 60 0 0,0
12.01.2018 15:00:00 11,8 6,3 11,8 11,4 15 8 32 17 N 1016,0 48 0 0,0
12.01.2018 14:00:00 12,2 6,5 12,1 11,4 22 12 31 17 NNE 1015,6 41 0 0,0
12.01.2018 13:00:00 12,0 6,7 11,1 11,4 16 9 29 15 N 1015,6 10 0 0,0
12.01.2018 12:00:00 11,1 5,8 10,3 11,4 15 8 28 15 N 1016,0 10 0 0,0
12.01.2018 11:00:00 10,9 5,6 9,8 11,5 16 8 29 16 NNW 1016,1 58 0 0,0
12.01.2018 10:00:00 10,4 6,3 9,4 11,5 16 9 28 15 NNW 1015,5 10 0 0,0
12.01.2018 09:00:00 10,3 6,4 9,4 11,5 18 10 34 19 N 1014,7 10 0 0,0
12.01.2018 08:00:00 10,4 6,2 9,4 11,5 21 11 32 18 N 1013,9 10 0 0,0
12.01.2018 07:00:00 10,0 6,9 9,2 11,6 16 9 27 15 NNW 1013,2 10 0 0,0
12.01.2018 06:00:00 10,1 6,8 9,0 11,6 16 9 29 16 NNW 1012,6 60 0 0,0
12.01.2018 05:00:00 10,0 7,1 9,2 11,7 21 11 31 17 NNW 1012,2 10 0 0,0
12.01.2018 04:00:00 9,8 7,0 9,1 11,7 15 8 31 17 NNW 1011,9 10 0 0,0
12.01.2018 03:00:00 9,9 6,8 8,8 11,8 18 10 27 15 N 1011,9 10 0 0,0
12.01.2018 02:00:00 9,7 7,0 8,6 11,8 14 8 25 13 NNW 1011,4 60 0 0,0
12.01.2018 01:00:00 9,6 7,2 8,4 11,9 11 6 26 14 NNW 1011,0 10 0 0,0
12.01.2018 00:00:00 9,2 7,3 8,4 11,9 17 9 29 16 NNW 1011,1 48 0 2,1
11.01.2018 23:00:00 9,0 7,9 8,4 11,9 15 8 23 12 NW 1010,8 10 0 3,0
11.01.2018 22:00:00 9,3 8,1 8,4 12,0 5 3 20 11 NW 1010,4 10 0 0,6
11.01.2018 21:00:00 9,6 8,4 8,5 12,0 16 9 29 16 N 1010,1 5 0 1,2
11.01.2018 20:00:00 10,2 6,3 9,0 12,0 8 4 21 12 N 1009,6 10 0 0,0
11.01.2018 19:00:00 10,2 5,6 9,1 12,0 8 4 14 8 NNW 1009,4 10 0 0,0
11.01.2018 18:00:00 10,2 6,2 7,8 11,9 6 3 12 6 N 1009,0 60 0 0,0
11.01.2018 17:00:00 10,9 5,2 9,8 11,8 9 5 17 9 NNW 1008,6 60 0 0,0
11.01.2018 16:00:00 12,3 6,8 12,0 11,8 11 6 28 15 N 1008,5 10 42 0,0
11.01.2018 15:00:00 12,8 7,2 13,0 11,6 17 9 26 14 N 1008,2 58 20 0,0
11.01.2018 14:00:00 12,2 6,9 12,9 11,6 16 9 28 15 N 1008,3 10 2 0,0
11.01.2018 13:00:00 12,5 7,6 12,9 11,5 21 11 27 15 N 1008,6 60 0 0,0
11.01.2018 12:00:00 12,9 7,1 12,8 11,5 18 10 27 15 N 1009,1 10 22 0,0
11.01.2018 11:00:00 12,5 7,0 11,7 11,5 9 5 14 8 NNW 1009,6 10 0 0,0
11.01.2018 10:00:00 12,4 6,7 10,9 11,5 3 2 13 7 N 1009,6 56 41 0,0
11.01.2018 09:00:00 10,0 5,2 6,8 11,6 8 5 17 9 W 1009,7 60 16 0,0
11.01.2018 08:00:00 7,6 4,7 6,6 11,6 5 3 18 10 WNW 1009,8 60 0 0,0
11.01.2018 07:00:00 8,5 5,6 7,5 11,7 9 5 18 10 WNW 1009,7 10 0 0,0
11.01.2018 06:00:00 9,1 6,4 7,7 11,7 9 5 20 11 W 1009,5 10 0 0,0
11.01.2018 05:00:00 9,5 6,8 8,3 11,7 9 5 16 8 W 1009,7 60 0 0,0
11.01.2018 04:00:00 9,7 7,0 8,3 11,8 11 6 18 10 W 1010,5 60 0 0,0
11.01.2018 03:00:00 9,7 7,0 8,1 11,8 8 4 13 7 W 1011,1 10 0 0,0
11.01.2018 02:00:00 9,6 5,9 7,8 11,9 6 3 10 6 W 1011,3 35 0 0,0
11.01.2018 01:00:00 8,9 4,9 7,3 11,9 5 3 10 5 - 1011,4 10 0 0,0

tt = Température de l'air
td = dewpoint
tt 5cm = Température de l'air 5cm
tt -20cm = Température de l'air -20cm
ff = Vitesse du vent
fx = gusts
dd = Direction du vent
ppp = reduced air pressure
vv = visibility
sd = Ensoleillement
rr = Quantités de précipitations

stations d'obs. à proximité